"SCET";"RADIUS";"LONGITUDE";"LOCAL_TIME";"LATITUDE";"MAGNETIC_LOCAL_TIME";"MAGNETIC_LATITUDE";"JSE_X";"JSE_Y";"JSE_Z";"FREQ_CE";"METHOD";"MEASURED_VALUE";"QUALITY_INDEX";"MEASURED_ITEM";"SOLAR_WIND";"FREQ_PE";"FREQ_L0";"FREQ_R0";"FREQ_UHR";"ELECTRON_DENSITY"
"[UTC]";"[Rj where 1Rj=71492km]";"[degrees]";"[hours]";"[degrees]";"[degrees]";"[hours]";"[Rj where 1Rj=71492km]";"[Rj where 1Rj=71492km]";"[Rj where 1Rj=71492km]";"[Hz]";"[line, spec, or auto]";"[Hz]";"[0 = best, 3 = worst]";"[p, R, L or u]";"[1 if Yes, 0 if No]";"[Hz]";"[Hz]";"[Hz]";"[Hz]";"[cm-3]"
1999-02-01T01:05:18.858;9.4947e+00;2.2274e+02;2.2644e+00;-2.0096e-01;9.3371e+00;8.6058e+00;7.3377e+00;-6.0258e+00;-1.1483e-01;1.2590e+04;"line";5.7741e+04;3;"u";0;5.6352e+04;5.0408e+04;6.2998e+04;5.7741e+04;3.9379e+01
1999-02-01T01:05:56.191;9.4926e+00;2.2306e+02;2.2639e+00;-2.0042e-01;9.3412e+00;8.5860e+00;7.3423e+00;-6.0170e+00;-1.1524e-01;1.2604e+04;"line";5.7741e+04;3;"u";0;5.6349e+04;5.0398e+04;6.3002e+04;5.7741e+04;3.9375e+01
1999-02-01T01:06:33.525;9.4906e+00;2.2338e+02;2.2635e+00;-1.9990e-01;9.3453e+00;8.5664e+00;7.3467e+00;-6.0084e+00;-1.1564e-01;1.2602e+04;"line";5.7741e+04;3;"u";0;5.6349e+04;5.0400e+04;6.3002e+04;5.7741e+04;3.9376e+01
1999-02-01T01:07:10.858;9.4887e+00;2.2369e+02;2.2630e+00;-1.9937e-01;9.3494e+00;8.5466e+00;7.3512e+00;-5.9999e+00;-1.1603e-01;1.2603e+04;"line";5.7741e+04;3;"u";0;5.6349e+04;5.0399e+04;6.3002e+04;5.7741e+04;3.9375e+01
1999-02-01T01:07:48.191;9.4866e+00;2.2402e+02;2.2625e+00;-1.9883e-01;9.3535e+00;8.5259e+00;7.3557e+00;-5.9911e+00;-1.1644e-01;1.2612e+04;"line";5.7741e+04;3;"u";0;5.6347e+04;5.0393e+04;6.3005e+04;5.7741e+04;3.9372e+01
1999-02-01T01:08:25.525;9.4847e+00;2.2433e+02;2.2620e+00;-1.9831e-01;9.3576e+00;8.5056e+00;7.3601e+00;-5.9825e+00;-1.1684e-01;1.2595e+04;"line";5.7741e+04;3;"u";0;5.6351e+04;5.0404e+04;6.2999e+04;5.7741e+04;3.9378e+01
1999-02-01T01:09:02.858;9.4827e+00;2.2465e+02;2.2616e+00;-1.9778e-01;9.3617e+00;8.4849e+00;7.3646e+00;-5.9739e+00;-1.1723e-01;1.2607e+04;"line";5.7741e+04;3;"u";0;5.6348e+04;5.0397e+04;6.3003e+04;5.7741e+04;3.9374e+01
1999-02-01T01:09:40.191;9.4807e+00;2.2497e+02;2.2611e+00;-1.9724e-01;9.3659e+00;8.4635e+00;7.3691e+00;-5.9651e+00;-1.1764e-01;1.2605e+04;"line";5.7741e+04;3;"u";0;5.6349e+04;5.0398e+04;6.3003e+04;5.7741e+04;3.9375e+01
1999-02-01T01:10:17.524;9.4787e+00;2.2529e+02;2.2606e+00;-1.9671e-01;9.3700e+00;8.4423e+00;7.3735e+00;-5.9565e+00;-1.1804e-01;1.2606e+04;"line";6.6343e+04;2;"u";0;6.5135e+04;5.9136e+04;7.1742e+04;6.6343e+04;5.2611e+01
1999-02-01T01:10:54.858;9.4768e+00;2.2560e+02;2.2602e+00;-1.9618e-01;9.3741e+00;8.4209e+00;7.3780e+00;-5.9480e+00;-1.1844e-01;1.2618e+04;"line";6.6343e+04;2;"u";0;6.5132e+04;5.9128e+04;7.1746e+04;6.6343e+04;5.2607e+01
1999-02-01T01:11:32.191;9.4748e+00;2.2593e+02;2.2597e+00;-1.9564e-01;9.3783e+00;8.3986e+00;7.3825e+00;-5.9391e+00;-1.1884e-01;1.2609e+04;"line";6.4826e+04;2;"u";0;6.3587e+04;5.7595e+04;7.0204e+04;6.4826e+04;5.0141e+01
1999-02-01T01:12:09.524;9.4729e+00;2.2624e+02;2.2592e+00;-1.9511e-01;9.3824e+00;8.3766e+00;7.3869e+00;-5.9306e+00;-1.1924e-01;1.2623e+04;"line";6.6343e+04;2;"u";0;6.5131e+04;5.9125e+04;7.1748e+04;6.6343e+04;5.2605e+01
1999-02-01T01:12:46.858;9.4709e+00;2.2656e+02;2.2588e+00;-1.9458e-01;9.3866e+00;8.3544e+00;7.3913e+00;-5.9220e+00;-1.1964e-01;1.2606e+04;"line";6.6343e+04;2;"u";0;6.5135e+04;5.9136e+04;7.1742e+04;6.6343e+04;5.2611e+01
1999-02-01T01:13:24.191;9.4689e+00;2.2688e+02;2.2583e+00;-1.9404e-01;9.3908e+00;8.3313e+00;7.3958e+00;-5.9131e+00;-1.2004e-01;1.2605e+04;"line";6.4826e+04;2;"u";0;6.3588e+04;5.7597e+04;7.0202e+04;6.4826e+04;5.0142e+01
1999-02-01T01:14:01.524;9.4670e+00;2.2720e+02;2.2578e+00;-1.9351e-01;9.3949e+00;8.3086e+00;7.4002e+00;-5.9045e+00;-1.2044e-01;1.2609e+04;"line";6.6343e+04;2;"u";0;6.5134e+04;5.9134e+04;7.1743e+04;6.6343e+04;5.2610e+01
1999-02-01T01:14:38.858;9.4651e+00;2.2751e+02;2.2574e+00;-1.9298e-01;9.3991e+00;8.2856e+00;7.4046e+00;-5.8959e+00;-1.2084e-01;1.2594e+04;"line";6.4826e+04;2;"u";0;6.3590e+04;5.7605e+04;7.0198e+04;6.4826e+04;5.0145e+01
1999-02-01T01:15:16.190;9.4631e+00;2.2784e+02;2.2569e+00;-1.9243e-01;9.4033e+00;8.2617e+00;7.4091e+00;-5.8871e+00;-1.2124e-01;1.2606e+04;"line";7.1114e+04;1;"u";0;6.9987e+04;6.3967e+04;7.6574e+04;7.1114e+04;6.0742e+01
1999-02-01T01:15:53.524;9.4612e+00;2.2815e+02;2.2564e+00;-1.9190e-01;9.4075e+00;8.2382e+00;7.4135e+00;-5.8785e+00;-1.2164e-01;1.2596e+04;"line";7.2779e+04;2;"u";0;7.1680e+04;6.5659e+04;7.8255e+04;7.2779e+04;6.3716e+01
1999-02-01T01:16:30.858;9.4593e+00;2.2847e+02;2.2560e+00;-1.9137e-01;9.4116e+00;8.2144e+00;7.4179e+00;-5.8699e+00;-1.2203e-01;1.2602e+04;"line";7.2779e+04;2;"u";0;7.1679e+04;6.5655e+04;7.8257e+04;7.2779e+04;6.3714e+01
1999-02-01T01:17:08.191;9.4573e+00;2.2879e+02;2.2555e+00;-1.9082e-01;9.4159e+00;8.1898e+00;7.4224e+00;-5.8610e+00;-1.2244e-01;1.2604e+04;"line";7.1114e+04;2;"u";0;6.9988e+04;6.3969e+04;7.6573e+04;7.1114e+04;6.0742e+01
1999-02-01T01:17:45.524;9.4554e+00;2.2911e+02;2.2551e+00;-1.9029e-01;9.4201e+00;8.1655e+00;7.4267e+00;-5.8524e+00;-1.2284e-01;1.2591e+04;"line";7.1114e+04;2;"u";0;6.9990e+04;6.3977e+04;7.6568e+04;7.1114e+04;6.0746e+01
1999-02-01T01:18:22.857;9.4535e+00;2.2942e+02;2.2546e+00;-1.8976e-01;9.4243e+00;8.1410e+00;7.4311e+00;-5.8438e+00;-1.2323e-01;1.2606e+04;"line";7.2779e+04;2;"u";0;7.1679e+04;6.5653e+04;7.8258e+04;7.2779e+04;6.3713e+01
1999-02-01T01:19:00.191;9.4516e+00;2.2975e+02;2.2541e+00;-1.8921e-01;9.4286e+00;8.1155e+00;7.4356e+00;-5.8349e+00;-1.2364e-01;1.2596e+04;"line";7.2779e+04;2;"u";0;7.1680e+04;6.5658e+04;7.8255e+04;7.2779e+04;6.3716e+01
1999-02-01T01:19:37.524;9.4497e+00;2.3006e+02;2.2537e+00;-1.8868e-01;9.4328e+00;8.0905e+00;7.4400e+00;-5.8263e+00;-1.2404e-01;1.2605e+04;"line";7.1114e+04;2;"u";0;6.9988e+04;6.3969e+04;7.6573e+04;7.1114e+04;6.0742e+01
1999-02-01T01:20:14.857;9.4478e+00;2.3038e+02;2.2532e+00;-1.8815e-01;9.4370e+00;8.0652e+00;7.4443e+00;-5.8176e+00;-1.2443e-01;1.2606e+04;"line";7.2779e+04;2;"u";0;7.1679e+04;6.5653e+04;7.8258e+04;7.2779e+04;6.3713e+01
1999-02-01T01:20:52.191;9.4459e+00;2.3070e+02;2.2528e+00;-1.8760e-01;9.4413e+00;8.0390e+00;7.4488e+00;-5.8088e+00;-1.2484e-01;1.2599e+04;"line";7.1114e+04;2;"u";0;6.9989e+04;6.3972e+04;7.6571e+04;7.1114e+04;6.0744e+01
1999-02-01T01:21:29.524;9.4440e+00;2.3102e+02;2.2523e+00;-1.8706e-01;9.4455e+00;8.0132e+00;7.4531e+00;-5.8001e+00;-1.2523e-01;1.2614e+04;"line";7.1114e+04;2;"u";0;6.9986e+04;6.3963e+04;7.6577e+04;7.1114e+04;6.0739e+01
1999-02-01T01:22:06.857;9.4421e+00;2.3133e+02;2.2519e+00;-1.8653e-01;9.4497e+00;7.9872e+00;7.4575e+00;-5.7915e+00;-1.2563e-01;1.2600e+04;"line";7.2779e+04;2;"u";0;7.1680e+04;6.5656e+04;7.8256e+04;7.2779e+04;6.3715e+01
1999-02-01T01:22:44.191;9.4402e+00;2.3166e+02;2.2514e+00;-1.8598e-01;9.4540e+00;7.9602e+00;7.4619e+00;-5.7826e+00;-1.2604e-01;1.2611e+04;"line";7.2779e+04;2;"u";0;7.1678e+04;6.5649e+04;7.8260e+04;7.2779e+04;6.3712e+01
1999-02-01T01:23:21.524;9.4383e+00;2.3197e+02;2.2510e+00;-1.8544e-01;9.4583e+00;7.9337e+00;7.4663e+00;-5.7739e+00;-1.2643e-01;1.2605e+04;"line";7.1114e+04;2;"u";0;6.9988e+04;6.3968e+04;7.6573e+04;7.1114e+04;6.0742e+01
1999-02-01T01:23:58.857;9.4365e+00;2.3229e+02;2.2505e+00;-1.8491e-01;9.4625e+00;7.9069e+00;7.4706e+00;-5.7653e+00;-1.2683e-01;1.2597e+04;"line";7.2779e+04;2;"u";0;7.1680e+04;6.5658e+04;7.8255e+04;7.2779e+04;6.3716e+01
1999-02-01T01:24:36.191;9.4346e+00;2.3261e+02;2.2501e+00;-1.8436e-01;9.4668e+00;7.8792e+00;7.4750e+00;-5.7564e+00;-1.2723e-01;1.2606e+04;"line";7.2779e+04;2;"u";0;7.1679e+04;6.5652e+04;7.8258e+04;7.2779e+04;6.3713e+01
1999-02-01T01:25:13.524;9.4327e+00;2.3292e+02;2.2497e+00;-1.8382e-01;9.4711e+00;7.8520e+00;7.4793e+00;-5.7477e+00;-1.2763e-01;1.2592e+04;"line";8.1708e+04;1;"u";0;8.0732e+04;7.4681e+04;8.7273e+04;8.1708e+04;8.0823e+01
1999-02-01T01:25:50.857;9.4309e+00;2.3324e+02;2.2492e+00;-1.8328e-01;9.4753e+00;7.8245e+00;7.4837e+00;-5.7391e+00;-1.2802e-01;1.2600e+04;"line";7.9838e+04;1;"u";0;7.8838e+04;7.2789e+04;8.5389e+04;7.9838e+04;7.7075e+01
1999-02-01T01:26:28.191;9.4290e+00;2.3356e+02;2.2488e+00;-1.8273e-01;9.4797e+00;7.7960e+00;7.4881e+00;-5.7302e+00;-1.2843e-01;1.2593e+04;"line";8.1708e+04;1;"u";0;8.0731e+04;7.4680e+04;8.7273e+04;8.1708e+04;8.0823e+01
1999-02-01T01:27:05.524;9.4271e+00;2.3388e+02;2.2483e+00;-1.8220e-01;9.4839e+00;7.7680e+00;7.4924e+00;-5.7215e+00;-1.2883e-01;1.2587e+04;"line";8.1708e+04;1;"u";0;8.0732e+04;7.4684e+04;8.7271e+04;8.1708e+04;8.0824e+01
1999-02-01T01:27:42.857;9.4253e+00;2.3419e+02;2.2479e+00;-1.8166e-01;9.4882e+00;7.7398e+00;7.4967e+00;-5.7128e+00;-1.2922e-01;1.2596e+04;"line";8.1708e+04;1;"u";0;8.0731e+04;7.4678e+04;8.7274e+04;8.1708e+04;8.0822e+01
1999-02-01T01:28:20.190;9.4234e+00;2.3452e+02;2.2474e+00;-1.8111e-01;9.4926e+00;7.7106e+00;7.5011e+00;-5.7039e+00;-1.2963e-01;1.2585e+04;"line";8.1708e+04;1;"u";0;8.0733e+04;7.4685e+04;8.7270e+04;8.1708e+04;8.0825e+01
1999-02-01T01:28:57.524;9.4216e+00;2.3483e+02;2.2470e+00;-1.8057e-01;9.4969e+00;7.6819e+00;7.5054e+00;-5.6952e+00;-1.3002e-01;1.2600e+04;"line";8.1708e+04;1;"u";0;8.0730e+04;7.4676e+04;8.7276e+04;8.1708e+04;8.0820e+01
1999-02-01T01:29:34.857;9.4198e+00;2.3515e+02;2.2466e+00;-1.8003e-01;9.5011e+00;7.6529e+00;7.5097e+00;-5.6865e+00;-1.3042e-01;1.2585e+04;"line";8.1708e+04;1;"u";0;8.0733e+04;7.4685e+04;8.7270e+04;8.1708e+04;8.0825e+01
1999-02-01T01:30:12.190;9.4179e+00;2.3547e+02;2.2461e+00;-1.7948e-01;9.5055e+00;7.6230e+00;7.5141e+00;-5.6776e+00;-1.3082e-01;1.2583e+04;"line";7.9838e+04;2;"u";0;7.8840e+04;7.2799e+04;8.5383e+04;7.9838e+04;7.7081e+01
1999-02-01T01:30:49.524;9.4161e+00;2.3578e+02;2.2457e+00;-1.7894e-01;9.5098e+00;7.5936e+00;7.5184e+00;-5.6689e+00;-1.3122e-01;1.2591e+04;"line";7.9838e+04;2;"u";0;7.8839e+04;7.2794e+04;8.5386e+04;7.9838e+04;7.7078e+01
1999-02-01T01:31:26.857;9.4143e+00;2.3610e+02;2.2453e+00;-1.7840e-01;9.5141e+00;7.5640e+00;7.5227e+00;-5.6602e+00;-1.3161e-01;1.2576e+04;"line";8.1708e+04;2;"u";0;8.0734e+04;7.4690e+04;8.7267e+04;8.1708e+04;8.0828e+01
1999-02-01T01:32:04.190;9.4124e+00;2.3642e+02;2.2448e+00;-1.7784e-01;9.5185e+00;7.5333e+00;7.5271e+00;-5.6513e+00;-1.3202e-01;1.2590e+04;"line";8.1708e+04;2;"u";0;8.0732e+04;7.4682e+04;8.7272e+04;8.1708e+04;8.0823e+01
1999-02-01T01:32:41.524;9.4106e+00;2.3674e+02;2.2444e+00;-1.7730e-01;9.5228e+00;7.5032e+00;7.5313e+00;-5.6426e+00;-1.3241e-01;1.2585e+04;"line";8.1708e+04;2;"u";0;8.0733e+04;7.4685e+04;8.7270e+04;8.1708e+04;8.0825e+01
1999-02-01T01:33:18.857;9.4088e+00;2.3705e+02;2.2440e+00;-1.7676e-01;9.5271e+00;7.4729e+00;7.5356e+00;-5.6338e+00;-1.3281e-01;1.2598e+04;"line";8.1708e+04;2;"u";0;8.0731e+04;7.4677e+04;8.7275e+04;8.1708e+04;8.0821e+01
1999-02-01T01:33:56.190;9.4070e+00;2.3737e+02;2.2435e+00;-1.7621e-01;9.5316e+00;7.4415e+00;7.5400e+00;-5.6249e+00;-1.3321e-01;1.2614e+04;"line";7.9838e+04;2;"u";0;7.8835e+04;7.2780e+04;8.5395e+04;7.9838e+04;7.7071e+01
1999-02-01T01:34:33.524;9.4052e+00;2.3769e+02;2.2431e+00;-1.7567e-01;9.5359e+00;7.4107e+00;7.5442e+00;-5.6162e+00;-1.3361e-01;1.2608e+04;"line";8.1708e+04;2;"u";0;8.0729e+04;7.4671e+04;8.7279e+04;8.1708e+04;8.0818e+01
1999-02-01T01:50:09.308;9.3613e+00;2.4564e+02;2.2326e+00;-1.6192e-01;9.6464e+00;6.5599e+00;7.6505e+00;-5.3946e+00;-1.4358e-01;1.2621e+04;"line";9.3880e+04;2;"u";0;9.3028e+04;8.6931e+04;9.9552e+04;9.3880e+04;1.0732e+02
1999-02-01T01:50:46.641;9.3596e+00;2.4595e+02;2.2322e+00;-1.6138e-01;9.6508e+00;6.5236e+00;7.6547e+00;-5.3858e+00;-1.4397e-01;1.2655e+04;"line";9.6078e+04;2;"u";0;9.5241e+04;8.9123e+04;1.0178e+05;9.6078e+04;1.1249e+02
1999-02-01T01:51:23.975;9.3580e+00;2.4627e+02;2.2318e+00;-1.6084e-01;9.6553e+00;6.4871e+00;7.6588e+00;-5.3769e+00;-1.4437e-01;;"line";9.3880e+04;2;"u";0;;;;9.3880e+04;
1999-02-01T01:52:01.308;9.3563e+00;2.4659e+02;2.2314e+00;-1.6028e-01;9.6598e+00;6.4493e+00;7.6630e+00;-5.3679e+00;-1.4477e-01;;"line";9.6078e+04;2;"u";0;;;;9.6078e+04;
1999-02-01T01:52:38.641;9.3546e+00;2.4691e+02;2.2310e+00;-1.5973e-01;9.6642e+00;6.4124e+00;7.6672e+00;-5.3591e+00;-1.4517e-01;1.2689e+04;"line";9.6078e+04;2;"u";0;9.5237e+04;8.9103e+04;1.0179e+05;9.6078e+04;1.1247e+02
1999-02-01T01:53:15.975;9.3529e+00;2.4722e+02;2.2306e+00;-1.5919e-01;9.6687e+00;6.3753e+00;7.6713e+00;-5.3503e+00;-1.4556e-01;1.2694e+04;"line";9.3880e+04;2;"u";0;9.3018e+04;8.6887e+04;9.9581e+04;9.3880e+04;1.0730e+02
1999-02-01T01:53:53.308;9.3512e+00;2.4754e+02;2.2302e+00;-1.5863e-01;9.6732e+00;6.3369e+00;7.6755e+00;-5.3412e+00;-1.4596e-01;1.2690e+04;"line";9.6078e+04;2;"u";0;9.5236e+04;8.9103e+04;1.0179e+05;9.6078e+04;1.1247e+02
1999-02-01T01:54:30.641;9.3496e+00;2.4786e+02;2.2298e+00;-1.5809e-01;9.6776e+00;6.2994e+00;7.6797e+00;-5.3324e+00;-1.4636e-01;1.2690e+04;"line";9.8328e+04;2;"u";0;9.7506e+04;9.1367e+04;1.0406e+05;9.8328e+04;1.1790e+02
1999-02-01T01:55:07.975;9.3479e+00;2.4817e+02;2.2294e+00;-1.5755e-01;9.6821e+00;6.2617e+00;7.6838e+00;-5.3235e+00;-1.4675e-01;1.2696e+04;"line";1.0063e+05;2;"u";0;9.9826e+04;9.3680e+04;1.0638e+05;1.0063e+05;1.2358e+02
1999-02-01T01:55:45.308;9.3462e+00;2.4849e+02;2.2290e+00;-1.5699e-01;9.6866e+00;6.2228e+00;7.6880e+00;-5.3144e+00;-1.4716e-01;1.2707e+04;"line";9.6078e+04;3;"u";0;9.5234e+04;8.9093e+04;1.0180e+05;9.6078e+04;1.1247e+02
1999-02-01T01:56:22.641;9.3446e+00;2.4881e+02;2.2287e+00;-1.5645e-01;9.6911e+00;6.1847e+00;7.6921e+00;-5.3056e+00;-1.4755e-01;1.2704e+04;"line";9.8328e+04;3;"u";0;9.7504e+04;9.1359e+04;1.0406e+05;9.8328e+04;1.1789e+02
1999-02-01T01:56:59.975;9.3430e+00;2.4912e+02;2.2283e+00;-1.5591e-01;9.6955e+00;6.1464e+00;7.6962e+00;-5.2968e+00;-1.4795e-01;1.2692e+04;"line";9.6078e+04;2;"u";0;9.5236e+04;8.9102e+04;1.0179e+05;9.6078e+04;1.1247e+02
1999-02-01T01:57:37.308;9.3413e+00;2.4944e+02;2.2279e+00;-1.5535e-01;9.7001e+00;6.1069e+00;7.7004e+00;-5.2877e+00;-1.4835e-01;1.2696e+04;"line";9.8328e+04;2;"u";0;9.7505e+04;9.1363e+04;1.0406e+05;9.8328e+04;1.1790e+02
1999-02-01T01:58:14.641;9.3397e+00;2.4975e+02;2.2275e+00;-1.5481e-01;9.7045e+00;6.0683e+00;7.7045e+00;-5.2788e+00;-1.4875e-01;1.2710e+04;"line";9.6078e+04;2;"u";0;9.5234e+04;8.9091e+04;1.0180e+05;9.6078e+04;1.1247e+02
1999-02-01T01:58:51.975;9.3381e+00;2.5007e+02;2.2271e+00;-1.5427e-01;9.7090e+00;6.0295e+00;7.7086e+00;-5.2700e+00;-1.4914e-01;1.2711e+04;"line";9.6078e+04;2;"u";0;9.5234e+04;8.9090e+04;1.0180e+05;9.6078e+04;1.1247e+02
1999-02-01T01:59:29.308;9.3364e+00;2.5039e+02;2.2267e+00;-1.5372e-01;9.7135e+00;5.9894e+00;7.7128e+00;-5.2609e+00;-1.4955e-01;1.2716e+04;"line";9.6078e+04;2;"u";0;9.5233e+04;8.9087e+04;1.0180e+05;9.6078e+04;1.1247e+02
1999-02-01T02:00:06.641;9.3348e+00;2.5070e+02;2.2263e+00;-1.5318e-01;9.7180e+00;5.9502e+00;7.7169e+00;-5.2520e+00;-1.4994e-01;1.2732e+04;"line";9.6078e+04;2;"u";0;9.5231e+04;8.9077e+04;1.0181e+05;9.6078e+04;1.1246e+02
1999-02-01T02:00:43.974;9.3332e+00;2.5102e+02;2.2259e+00;-1.5265e-01;9.7224e+00;5.9108e+00;7.7210e+00;-5.2431e+00;-1.5034e-01;1.2740e+04;"line";9.6078e+04;2;"u";0;9.5230e+04;8.9072e+04;1.0181e+05;9.6078e+04;1.1246e+02
1999-02-01T02:01:21.308;9.3315e+00;2.5134e+02;2.2255e+00;-1.5210e-01;9.7270e+00;5.8702e+00;7.7251e+00;-5.2340e+00;-1.5075e-01;1.2739e+04;"line";9.6078e+04;1;"u";0;9.5230e+04;8.9073e+04;1.0181e+05;9.6078e+04;1.1246e+02
1999-02-01T02:01:58.641;9.3299e+00;2.5165e+02;2.2252e+00;-1.5156e-01;9.7315e+00;5.8305e+00;7.7292e+00;-5.2251e+00;-1.5114e-01;1.2734e+04;"line";9.6078e+04;1;"u";0;9.5231e+04;8.9076e+04;1.0181e+05;9.6078e+04;1.1246e+02
1999-02-01T02:02:35.974;9.3283e+00;2.5197e+02;2.2248e+00;-1.5103e-01;9.7359e+00;5.7906e+00;7.7333e+00;-5.2163e+00;-1.5154e-01;1.2731e+04;"line";9.6078e+04;2;"u";0;9.5231e+04;8.9078e+04;1.0181e+05;9.6078e+04;1.1246e+02
1999-02-01T02:03:13.308;9.3267e+00;2.5229e+02;2.2244e+00;-1.5049e-01;9.7405e+00;5.7494e+00;7.7374e+00;-5.2071e+00;-1.5195e-01;1.2742e+04;"line";9.6078e+04;2;"u";0;9.5230e+04;8.9071e+04;1.0181e+05;9.6078e+04;1.1246e+02
1999-02-01T02:04:27.974;9.3235e+00;2.5292e+02;2.2236e+00;-1.4943e-01;9.7495e+00;5.6688e+00;7.7456e+00;-5.1893e+00;-1.5274e-01;1.2774e+04;"line";9.6078e+04;2;"u";0;9.5225e+04;8.9052e+04;1.0183e+05;9.6078e+04;1.1245e+02
1999-02-01T02:05:05.308;9.3219e+00;2.5324e+02;2.2232e+00;-1.4889e-01;9.7540e+00;5.6271e+00;7.7497e+00;-5.1802e+00;-1.5315e-01;1.2793e+04;"line";9.6078e+04;2;"u";0;9.5223e+04;8.9041e+04;1.0183e+05;9.6078e+04;1.1244e+02
1999-02-01T02:05:47.308;9.3201e+00;2.5359e+02;2.2228e+00;-1.4830e-01;9.7591e+00;5.5808e+00;7.7543e+00;-5.1701e+00;-1.5360e-01;1.2811e+04;"line";9.6078e+04;3;"u";0;9.5220e+04;8.9030e+04;1.0184e+05;9.6078e+04;1.1244e+02
1999-02-01T02:06:19.974;9.3188e+00;2.5386e+02;2.2225e+00;-1.4785e-01;9.7630e+00;5.5454e+00;7.7578e+00;-5.1624e+00;-1.5394e-01;1.2822e+04;"line";9.6078e+04;1;"u";0;9.5219e+04;8.9023e+04;1.0185e+05;9.6078e+04;1.1243e+02
1999-02-01T02:06:57.308;9.3172e+00;2.5419e+02;2.2221e+00;-1.4732e-01;9.7676e+00;5.5032e+00;7.7619e+00;-5.1532e+00;-1.5435e-01;1.2822e+04;"line";9.6078e+04;3;"u";0;9.5219e+04;8.9023e+04;1.0185e+05;9.6078e+04;1.1243e+02
1999-02-01T02:08:11.974;9.3140e+00;2.5481e+02;2.2214e+00;-1.4630e-01;9.7765e+00;5.4205e+00;7.7700e+00;-5.1354e+00;-1.5515e-01;1.2872e+04;"line";9.3880e+04;2;"u";0;9.2993e+04;8.6780e+04;9.9652e+04;9.3880e+04;1.0724e+02
1999-02-01T02:08:49.308;9.3124e+00;2.5513e+02;2.2210e+00;-1.4578e-01;9.7811e+00;5.3777e+00;7.7742e+00;-5.1262e+00;-1.5557e-01;1.2904e+04;"line";9.8328e+04;2;"u";0;9.7478e+04;9.1239e+04;1.0414e+05;9.8328e+04;1.1783e+02
1999-02-01T02:09:26.641;9.3109e+00;2.5545e+02;2.2206e+00;-1.4528e-01;9.7856e+00;5.3360e+00;7.7782e+00;-5.1173e+00;-1.5597e-01;1.2926e+04;"line";9.6078e+04;2;"u";0;9.5205e+04;8.8961e+04;1.0189e+05;9.6078e+04;1.1240e+02
1999-02-01T02:10:03.974;9.3094e+00;2.5576e+02;2.2203e+00;-1.4478e-01;9.7901e+00;5.2940e+00;7.7822e+00;-5.1084e+00;-1.5637e-01;1.2943e+04;"line";1.0299e+05;2;"u";0;1.0217e+05;9.5903e+04;1.0885e+05;1.0299e+05;1.2945e+02
1999-02-01T02:11:18.641;9.3062e+00;2.5640e+02;2.2195e+00;-1.4380e-01;9.7992e+00;5.2086e+00;7.7903e+00;-5.0902e+00;-1.5719e-01;1.3020e+04;"line";9.8328e+04;2;"u";0;9.7462e+04;9.1169e+04;1.0419e+05;9.8328e+04;1.1779e+02
1999-02-01T02:11:55.974;9.3047e+00;2.5671e+02;2.2191e+00;-1.4332e-01;9.8037e+00;5.1661e+00;7.7944e+00;-5.0813e+00;-1.5760e-01;1.3068e+04;"line";9.8328e+04;3;"u";0;9.7456e+04;9.1141e+04;1.0421e+05;9.8328e+04;1.1778e+02
1999-02-01T02:12:33.307;9.3032e+00;2.5703e+02;2.2188e+00;-1.4285e-01;9.8083e+00;5.1224e+00;7.7985e+00;-5.0721e+00;-1.5802e-01;1.3085e+04;"line";9.8328e+04;3;"u";0;9.7453e+04;9.1130e+04;1.0422e+05;9.8328e+04;1.1777e+02
1999-02-01T02:13:10.641;9.3016e+00;2.5734e+02;2.2184e+00;-1.4239e-01;9.8128e+00;5.0797e+00;7.8025e+00;-5.0631e+00;-1.5843e-01;1.3095e+04;"line";9.6078e+04;3;"u";0;9.5182e+04;8.8859e+04;1.0195e+05;9.6078e+04;1.1235e+02
1999-02-01T02:13:47.974;9.3001e+00;2.5766e+02;2.2181e+00;-1.4194e-01;9.8173e+00;5.0368e+00;7.8065e+00;-5.0541e+00;-1.5884e-01;1.3129e+04;"line";1.0063e+05;2;"u";0;9.9770e+04;9.3421e+04;1.0655e+05;1.0063e+05;1.2344e+02
1999-02-01T02:14:25.307;9.2986e+00;2.5798e+02;2.2177e+00;-1.4150e-01;9.8219e+00;4.9926e+00;7.8106e+00;-5.0449e+00;-1.5927e-01;1.3170e+04;"line";1.1562e+05;2;"u";0;1.1487e+05;1.0847e+05;1.2164e+05;1.1562e+05;1.6363e+02
1999-02-01T02:15:02.641;9.2971e+00;2.5829e+02;2.2173e+00;-1.4107e-01;9.8264e+00;4.9494e+00;7.8146e+00;-5.0359e+00;-1.5968e-01;1.3209e+04;"line";1.1562e+05;2;"u";0;1.1486e+05;1.0845e+05;1.2166e+05;1.1562e+05;1.6361e+02
1999-02-01T02:15:39.974;9.2956e+00;2.5860e+02;2.2170e+00;-1.4067e-01;9.8309e+00;4.9060e+00;7.8186e+00;-5.0269e+00;-1.6010e-01;1.3261e+04;"line";1.1562e+05;1;"u";0;1.1486e+05;1.0842e+05;1.2168e+05;1.1562e+05;1.6360e+02
1999-02-01T02:16:17.307;9.2941e+00;2.5892e+02;2.2166e+00;-1.4026e-01;9.8355e+00;4.8613e+00;7.8227e+00;-5.0177e+00;-1.6053e-01;1.3303e+04;"line";1.1562e+05;2;"u";0;1.1485e+05;1.0839e+05;1.2170e+05;1.1562e+05;1.6358e+02
1999-02-01T02:16:54.641;9.2926e+00;2.5924e+02;2.2163e+00;-1.3989e-01;9.8400e+00;4.8176e+00;7.8268e+00;-5.0087e+00;-1.6096e-01;1.3337e+04;"line";1.1833e+05;2;"u";0;1.1757e+05;1.1109e+05;1.2443e+05;1.1833e+05;1.7143e+02
1999-02-01T02:17:31.974;9.2912e+00;2.5955e+02;2.2159e+00;-1.3953e-01;9.8445e+00;4.7738e+00;7.8308e+00;-4.9997e+00;-1.6138e-01;1.3378e+04;"line";1.1833e+05;2;"u";0;1.1757e+05;1.1107e+05;1.2445e+05;1.1833e+05;1.7141e+02
1999-02-01T02:18:09.307;9.2897e+00;2.5987e+02;2.2156e+00;-1.3918e-01;9.8491e+00;4.7286e+00;7.8349e+00;-4.9905e+00;-1.6183e-01;1.3299e+04;"line";1.2393e+05;2;"u";0;1.2322e+05;1.1675e+05;1.3005e+05;1.2393e+05;1.8828e+02
1999-02-01T02:18:46.640;9.2882e+00;2.6018e+02;2.2152e+00;-1.3887e-01;9.8537e+00;4.6844e+00;7.8389e+00;-4.9815e+00;-1.6226e-01;1.3259e+04;"line";1.1562e+05;2;"u";0;1.1486e+05;1.0842e+05;1.2168e+05;1.1562e+05;1.6360e+02
1999-02-01T02:19:23.974;9.2868e+00;2.6050e+02;2.2149e+00;-1.3857e-01;9.8582e+00;4.6401e+00;7.8429e+00;-4.9724e+00;-1.6270e-01;1.3235e+04;"line";1.1562e+05;2;"u";0;1.1486e+05;1.0843e+05;1.2167e+05;1.1562e+05;1.6360e+02
1999-02-01T02:20:01.307;9.2853e+00;2.6082e+02;2.2145e+00;-1.3828e-01;9.8628e+00;4.5945e+00;7.8470e+00;-4.9632e+00;-1.6315e-01;1.3081e+04;"line";1.1562e+05;2;"u";0;1.1488e+05;1.0852e+05;1.2161e+05;1.1562e+05;1.6366e+02
1999-02-01T02:20:38.640;9.2839e+00;2.6113e+02;2.2142e+00;-1.3803e-01;9.8673e+00;4.5498e+00;7.8510e+00;-4.9542e+00;-1.6360e-01;1.3024e+04;"line";1.1298e+05;1;"u";0;1.1222e+05;1.0590e+05;1.1892e+05;1.1298e+05;1.5617e+02
1999-02-01T02:21:15.974;9.2825e+00;2.6144e+02;2.2138e+00;-1.3779e-01;9.8718e+00;4.5051e+00;7.8550e+00;-4.9451e+00;-1.6405e-01;1.2977e+04;"line";1.1562e+05;1;"u";0;1.1489e+05;1.0859e+05;1.2156e+05;1.1562e+05;1.6369e+02
1999-02-01T02:21:53.307;9.2810e+00;2.6176e+02;2.2135e+00;-1.3757e-01;9.8764e+00;4.4589e+00;7.8592e+00;-4.9359e+00;-1.6451e-01;1.2932e+04;"line";1.1562e+05;1;"u";0;1.1490e+05;1.0861e+05;1.2154e+05;1.1562e+05;1.6370e+02
1999-02-01T02:22:30.640;9.2797e+00;2.6207e+02;2.2132e+00;-1.3738e-01;9.8810e+00;4.4138e+00;7.8632e+00;-4.9269e+00;-1.6497e-01;1.2914e+04;"line";1.1298e+05;1;"u";0;1.1224e+05;1.0596e+05;1.1888e+05;1.1298e+05;1.5621e+02
1999-02-01T02:23:07.974;9.2783e+00;2.6239e+02;2.2128e+00;-1.3720e-01;9.8855e+00;4.3686e+00;7.8672e+00;-4.9178e+00;-1.6542e-01;1.2847e+04;"line";1.1298e+05;1;"u";0;1.1224e+05;1.0600e+05;1.1885e+05;1.1298e+05;1.5623e+02
1999-02-01T02:24:22.640;9.2755e+00;2.6302e+02;2.2122e+00;-1.3690e-01;9.8946e+00;4.2765e+00;7.8753e+00;-4.8995e+00;-1.6636e-01;1.2733e+04;"line";1.1298e+05;0;"u";0;1.1226e+05;1.0607e+05;1.1880e+05;1.1298e+05;1.5627e+02
1999-02-01T02:24:59.974;9.2742e+00;2.6333e+02;2.2119e+00;-1.3677e-01;9.8991e+00;4.2308e+00;7.8793e+00;-4.8905e+00;-1.6683e-01;1.2689e+04;"line";1.1833e+05;2;"u";0;1.1765e+05;1.1147e+05;1.2416e+05;1.1833e+05;1.7163e+02
1999-02-01T02:25:37.307;9.2728e+00;2.6365e+02;2.2115e+00;-1.3665e-01;9.9038e+00;4.1838e+00;7.8835e+00;-4.8813e+00;-1.6731e-01;1.2646e+04;"line";1.1833e+05;2;"u";0;1.1765e+05;1.1150e+05;1.2414e+05;1.1833e+05;1.7165e+02
1999-02-01T02:26:14.640;9.2715e+00;2.6396e+02;2.2112e+00;-1.3655e-01;9.9083e+00;4.1378e+00;7.8875e+00;-4.8722e+00;-1.6778e-01;1.2599e+04;"line";1.2110e+05;2;"u";0;1.2044e+05;1.1431e+05;1.2691e+05;1.2110e+05;1.7989e+02
1999-02-01T02:26:51.974;9.2702e+00;2.6428e+02;2.2109e+00;-1.3646e-01;9.9128e+00;4.0918e+00;7.8915e+00;-4.8632e+00;-1.6825e-01;1.2582e+04;"line";1.2393e+05;2;"u";0;1.2329e+05;1.1716e+05;1.2975e+05;1.2393e+05;1.8851e+02
1999-02-01T02:27:29.307;9.2688e+00;2.6460e+02;2.2106e+00;-1.3638e-01;9.9174e+00;4.0443e+00;7.8956e+00;-4.8539e+00;-1.6874e-01;1.2547e+04;"line";1.2393e+05;2;"u";0;1.2330e+05;1.1718e+05;1.2973e+05;1.2393e+05;1.8852e+02
1999-02-01T02:28:06.640;9.2675e+00;2.6491e+02;2.2103e+00;-1.3631e-01;9.9219e+00;3.9980e+00;7.8996e+00;-4.8449e+00;-1.6921e-01;1.2517e+04;"line";1.2393e+05;2;"u";0;1.2330e+05;1.1720e+05;1.2972e+05;1.2393e+05;1.8853e+02
1999-02-01T02:28:43.973;9.2662e+00;2.6522e+02;2.2100e+00;-1.3625e-01;9.9264e+00;3.9515e+00;7.9036e+00;-4.8359e+00;-1.6969e-01;1.2519e+04;"line";1.1562e+05;2;"u";0;1.1494e+05;1.0885e+05;1.2137e+05;1.1562e+05;1.6383e+02